This is the latest recevied weather packets stored in our database for station/object KC0UFP. If no packets are shown the sender has not sent any weather packets the latest 1 day(s).
| Time | Temp. | Humidity | Pressure | Rain* | Wind** | Luminosity | Snow |
|---|---|---|---|---|---|---|---|
| 1778093548 | 13.33° C | 67% | 1016 hPa | 0 mm | - | 68 W/m² | - |
| 1778089911 | 13.33° C | 70% | 1015.5 hPa | 0 mm | - | 411 W/m² | - |
| 1778088700 | 13.33° C | 71% | 1015.3 hPa | 0 mm | - | 411 W/m² | - |
| 1778085963 | 12.78° C | 72% | 1015.8 hPa | 0 mm | - | 354 W/m² | - |
| 1778085356 | 12.22° C | 74% | 1015.9 hPa | 0 mm | - | 349 W/m² | - |
| 1778085052 | 12.22° C | 73% | 1015.7 hPa | 0 mm | - | 217 W/m² | - |
| 1778083834 | 12.22° C | 74% | 1015.2 hPa | 0 mm | - | 483 W/m² | - |
| 1778083532 | 12.22° C | 75% | 1014.9 hPa | 0 mm | - | 613 W/m² | - |
| 1778081824 | 11.67° C | 78% | 1015.1 hPa | 0 mm | - | 379 W/m² | - |
| 1778081218 | 11.67° C | 79% | 1015.5 hPa | 0 mm | - | 393 W/m² | - |
| 1778080615 | 11.11° C | 80% | 1015.2 hPa | 0 mm | - | 311 W/m² | - |
| 1778079098 | 10.56° C | 82% | 1015.4 hPa | 0 mm | - | 241 W/m² | - |
| 1778078796 | 10.56° C | 84% | 1015.5 hPa | 0 mm | - | 210 W/m² | - |
| 1778078492 | 10.56° C | 84% | 1015.7 hPa | 0 mm | - | 176 W/m² | - |
| 1778077586 | 10.56° C | 86% | 1015.2 hPa | 0 mm | - | 174 W/m² | - |
| 1778075163 | 10° C | 88% | 1014.7 hPa | 0 mm | - | 137 W/m² | - |
| 1778074859 | 10° C | 88% | 1014.6 hPa | 0 mm | - | 124 W/m² | - |
| 1778074556 | 10° C | 88% | 1014.7 hPa | 0 mm | - | 113 W/m² | - |
| 1778073345 | 9.44° C | 88% | 1014 hPa | 0 mm | - | 113 W/m² | - |
| 1778073041 | 9.44° C | 88% | 1013.9 hPa | 0 mm | - | 104 W/m² | - |
| 1778072738 | 9.44° C | 89% | 1014 hPa | 0 mm | - | 86 W/m² | - |
| 1778072436 | 9.44° C | 89% | 1014 hPa | 0 mm | - | 92 W/m² | - |
| 1778072134 | 9.44° C | 89% | 1013.9 hPa | 0 mm | - | 99 W/m² | - |
| 1778070017 | 8.89° C | 90% | 1013.7 hPa | 0 mm | - | 58 W/m² | - |
| 1778068503 | 8.89° C | 91% | 1012.6 hPa | 0 mm | - | 43 W/m² | - |
* Rain latest hour (hover to see other rain measurements)
** Current wind speed in m/s (hover to see current wind gust speed)